BAW820 EGLL-EKCH

Flight info

Callsign BAW820
Flight time 1h 22m
Altitude 37000
Route BPK6J BPK Q295 SOMVA DCT MAVAS DCT ROCZO DCT DOSUR P729 TUDLO TUDLO4C
Aircraft A320/M-SDE3FGIJ1KRWXY/SB1

Departure

Time 2026-05-07 16:03
Airport London Heathrow Airport (EGLL)

Arrival

Time 2026-05-07 17:25
Airport Copenhagen Kastrup Airport (EKCH)
Time Latitude Longitude Altitude Speed Heading
2026-05-07 15:09 51.47049 -0.48584 86 ft 0 kts 269°
2026-05-07 15:54 51.47049 -0.48564 86 ft 4 kts 269°
2026-05-07 15:54 51.47049 -0.48521 88 ft 4 kts 269°
2026-05-07 15:54 51.47049 -0.48489 89 ft 4 kts 241°
2026-05-07 15:54 51.47067 -0.48471 86 ft 3 kts 180°
2026-05-07 15:55 51.47088 -0.48472 89 ft 1 kts 179°
2026-05-07 15:57 51.47060 -0.48471 86 ft 6 kts 179°
2026-05-07 15:58 51.47013 -0.48470 90 ft 8 kts 180°
2026-05-07 15:58 51.46950 -0.48470 87 ft 10 kts 180°
2026-05-07 15:58 51.46872 -0.48470 89 ft 12 kts 179°
2026-05-07 15:58 51.46777 -0.48469 86 ft 15 kts 180°
2026-05-07 15:59 51.46666 -0.48468 86 ft 17 kts 179°
2026-05-07 15:59 51.46590 -0.48467 86 ft 0 kts 179°
2026-05-07 16:01 51.46584 -0.48467 86 ft 3 kts 179°
2026-05-07 16:01 51.46532 -0.48467 88 ft 9 kts 180°
2026-05-07 16:01 51.46477 -0.48435 91 ft 9 kts 96°
2026-05-07 16:01 51.46478 -0.48406 87 ft 0 kts 89°
2026-05-07 16:02 51.46479 -0.48367 89 ft 16 kts 89°
2026-05-07 16:02 51.46480 -0.47783 89 ft 86 kts 90°
2026-05-07 16:02 51.46485 -0.46524 92 ft 137 kts 90°
2026-05-07 16:02 51.46493 -0.44808 337 ft 158 kts 90°
2026-05-07 16:03 51.46512 -0.43054 978 ft 161 kts 88°
2026-05-07 16:03 51.46677 -0.41256 1535 ft 170 kts 69°
2026-05-07 16:03 51.47388 -0.39628 1876 ft 188 kts 49°
2026-05-07 16:03 51.48284 -0.38026 2379 ft 197 kts 50°
2026-05-07 16:04 51.49218 -0.36322 2748 ft 216 kts 50°
2026-05-07 16:04 51.50249 -0.34341 3091 ft 242 kts 51°
2026-05-07 16:04 51.51357 -0.32166 3699 ft 258 kts 51°
2026-05-07 16:04 51.52363 -0.29746 4526 ft 264 kts 68°
2026-05-07 16:05 51.52970 -0.26933 5399 ft 268 kts 72°
2026-05-07 16:05 51.53620 -0.24099 5936 ft 272 kts 63°
2026-05-07 16:05 51.54746 -0.21641 6760 ft 276 kts 44°
2026-05-07 16:05 51.56328 -0.19871 7591 ft 280 kts 24°
2026-05-07 16:06 51.58115 -0.18667 8410 ft 283 kts 22°
2026-05-07 16:06 51.59987 -0.17604 9197 ft 287 kts 15°
2026-05-07 16:06 51.61902 -0.16717 9976 ft 291 kts 15°
2026-05-07 16:06 51.63890 -0.15797 10460 ft 307 kts 15°
2026-05-07 16:07 51.66019 -0.14812 10668 ft 330 kts 15°
2026-05-07 16:07 51.68291 -0.13762 11073 ft 345 kts 15°
2026-05-07 16:07 51.70570 -0.12469 11675 ft 351 kts 26°
2026-05-07 16:07 51.72612 -0.10290 12307 ft 354 kts 42°
2026-05-07 16:08 51.74253 -0.07308 12953 ft 357 kts 57°
2026-05-07 16:08 51.75366 -0.03724 13553 ft 359 kts 72°
2026-05-07 16:08 51.75894 0.00227 14165 ft 362 kts 84°
2026-05-07 16:08 51.76228 0.04268 14792 ft 365 kts 83°
2026-05-07 16:09 51.76561 0.08307 15398 ft 368 kts 83°
2026-05-07 16:09 51.76896 0.12423 16000 ft 371 kts 83°
2026-05-07 16:09 51.77233 0.16567 16568 ft 374 kts 83°
2026-05-07 16:09 51.77572 0.20748 17127 ft 377 kts 83°
2026-05-07 16:10 51.77917 0.24981 17675 ft 381 kts 83°
2026-05-07 16:10 51.78263 0.29240 18219 ft 384 kts 83°
2026-05-07 16:10 51.78611 0.33539 18760 ft 387 kts 83°
2026-05-07 16:10 51.78960 0.37875 19293 ft 391 kts 83°
2026-05-07 16:11 51.79310 0.42252 19817 ft 394 kts 83°
2026-05-07 16:11 51.79659 0.46677 20333 ft 398 kts 83°
2026-05-07 16:11 51.80005 0.51073 20819 ft 401 kts 83°
2026-05-07 16:11 51.80358 0.55566 21301 ft 404 kts 83°
2026-05-07 16:12 51.80715 0.60085 21748 ft 408 kts 83°
2026-05-07 16:12 51.81194 0.64624 22176 ft 411 kts 76°
2026-05-07 16:12 51.82113 0.69015 22601 ft 415 kts 67°
2026-05-07 16:12 51.83244 0.73324 23039 ft 417 kts 67°
2026-05-07 16:13 51.84372 0.77664 23469 ft 420 kts 68°
2026-05-07 16:13 51.85504 0.82053 23873 ft 423 kts 68°
2026-05-07 16:13 51.86637 0.86466 24276 ft 426 kts 68°
2026-05-07 16:13 51.87779 0.90912 24690 ft 429 kts 68°
2026-05-07 16:14 51.88838 0.95032 25066 ft 431 kts 68°
2026-05-07 16:14 51.90007 0.99585 25460 ft 433 kts 68°
2026-05-07 16:14 51.91146 1.04042 25848 ft 435 kts 68°
2026-05-07 16:14 51.92304 1.08578 26221 ft 436 kts 68°
2026-05-07 16:15 51.93471 1.13141 26583 ft 439 kts 68°
2026-05-07 16:15 51.94640 1.17716 26951 ft 441 kts 68°
2026-05-07 16:15 51.95812 1.22325 27335 ft 443 kts 68°
2026-05-07 16:15 51.96985 1.26955 27706 ft 445 kts 68°
2026-05-07 16:16 51.98163 1.31620 28071 ft 447 kts 68°
2026-05-07 16:16 51.99342 1.36301 28420 ft 449 kts 68°
2026-05-07 16:16 52.00525 1.40988 28757 ft 450 kts 68°
2026-05-07 16:16 52.01708 1.45697 29106 ft 451 kts 68°
2026-05-07 16:17 52.02877 1.50369 29460 ft 452 kts 68°
2026-05-07 16:17 52.04059 1.55100 29919 ft 450 kts 68°
2026-05-07 16:17 52.05235 1.59805 30377 ft 449 kts 68°
2026-05-07 16:17 52.06409 1.64501 30807 ft 448 kts 68°
2026-05-07 16:18 52.07583 1.69199 31219 ft 447 kts 68°
2026-05-07 16:18 52.08750 1.73886 31608 ft 447 kts 68°
2026-05-07 16:18 52.09911 1.78569 32000 ft 447 kts 68°
2026-05-07 16:18 52.11070 1.83263 32400 ft 447 kts 68°
2026-05-07 16:19 52.12228 1.87955 32796 ft 446 kts 68°
2026-05-07 16:19 52.13382 1.92643 33182 ft 445 kts 68°
2026-05-07 16:19 52.14531 1.97330 33570 ft 445 kts 68°
2026-05-07 16:19 52.15678 2.02014 33965 ft 444 kts 68°
2026-05-07 16:20 52.16820 2.06681 34334 ft 444 kts 69°
2026-05-07 16:20 52.17959 2.11362 34677 ft 443 kts 69°
2026-05-07 16:20 52.19094 2.16032 34987 ft 444 kts 69°
2026-05-07 16:20 52.20216 2.20654 35285 ft 444 kts 69°
2026-05-07 16:21 52.21351 2.25343 35590 ft 444 kts 69°
2026-05-07 16:21 52.22484 2.30040 35891 ft 444 kts 69°
2026-05-07 16:21 52.23611 2.34727 36169 ft 444 kts 69°
2026-05-07 16:21 52.24747 2.39442 36424 ft 445 kts 69°
2026-05-07 16:22 52.25879 2.44138 36681 ft 446 kts 69°
2026-05-07 16:22 52.27011 2.48844 36963 ft 445 kts 69°
2026-05-07 16:22 52.28143 2.53567 37091 ft 445 kts 69°
2026-05-07 16:23 52.30019 2.61447 37110 ft 448 kts 69°
2026-05-07 16:23 52.31916 2.71145 37112 ft 448 kts 74°
2026-05-07 16:24 52.33640 2.80929 37111 ft 448 kts 74°
2026-05-07 16:24 52.35365 2.90718 37108 ft 448 kts 75°
2026-05-07 16:25 52.37077 3.00514 37113 ft 448 kts 75°
2026-05-07 16:25 52.38778 3.10329 37117 ft 448 kts 75°
2026-05-07 16:26 52.41117 3.19713 37123 ft 450 kts 59°
2026-05-07 16:26 52.44568 3.28280 37126 ft 450 kts 56°
2026-05-07 16:27 52.48036 3.36832 37128 ft 450 kts 57°
2026-05-07 16:27 52.51497 3.45407 37130 ft 450 kts 57°
2026-05-07 16:28 52.54944 3.54013 37128 ft 450 kts 57°
2026-05-07 16:28 52.58380 3.62616 37127 ft 450 kts 57°
2026-05-07 16:29 52.61816 3.71240 37127 ft 450 kts 57°
2026-05-07 16:29 52.65223 3.79804 37127 ft 450 kts 57°
2026-05-07 16:30 52.68644 3.88433 37127 ft 450 kts 57°
2026-05-07 16:30 52.72056 3.97084 37128 ft 449 kts 57°
2026-05-07 16:31 52.75459 4.05741 37129 ft 450 kts 57°
2026-05-07 16:31 52.78855 4.14410 37132 ft 450 kts 57°
2026-05-07 16:32 52.82247 4.23094 37130 ft 449 kts 57°
2026-05-07 16:32 52.85627 4.31782 37129 ft 449 kts 57°
2026-05-07 16:33 52.89000 4.40485 37129 ft 448 kts 57°
2026-05-07 16:33 52.92365 4.49179 37131 ft 448 kts 57°
2026-05-07 16:34 52.95721 4.57881 37132 ft 447 kts 58°
2026-05-07 16:34 52.99064 4.66582 37134 ft 447 kts 57°
2026-05-07 16:35 53.02373 4.75227 37125 ft 446 kts 58°
2026-05-07 16:35 53.05695 4.83942 37127 ft 446 kts 58°
2026-05-07 16:36 53.09008 4.92654 37128 ft 445 kts 58°
2026-05-07 16:36 53.12307 5.01381 37127 ft 445 kts 58°
2026-05-07 16:37 53.15591 5.10116 37124 ft 444 kts 58°
2026-05-07 16:37 53.18854 5.18788 37122 ft 444 kts 58°
2026-05-07 16:38 53.22137 5.27527 37123 ft 444 kts 58°
2026-05-07 16:38 53.25408 5.36265 37126 ft 444 kts 58°
2026-05-07 16:39 53.28671 5.45027 37126 ft 443 kts 58°
2026-05-07 16:39 53.31921 5.53791 37129 ft 443 kts 58°
2026-05-07 16:40 53.35161 5.62573 37131 ft 443 kts 58°
2026-05-07 16:40 53.38374 5.71308 37130 ft 443 kts 58°
2026-05-07 16:41 53.41618 5.80153 37129 ft 442 kts 58°
2026-05-07 16:41 53.44833 5.88940 37130 ft 442 kts 58°
2026-05-07 16:42 53.48023 5.97676 37131 ft 441 kts 58°
2026-05-07 16:42 53.51223 6.06483 37132 ft 441 kts 59°
2026-05-07 16:43 53.54408 6.15296 37130 ft 441 kts 59°
2026-05-07 16:43 53.57587 6.24111 37129 ft 440 kts 59°
2026-05-07 16:44 53.60760 6.32935 37128 ft 440 kts 59°
2026-05-07 16:44 53.63923 6.41771 37127 ft 440 kts 59°
2026-05-07 16:45 53.67077 6.50618 37122 ft 440 kts 59°
2026-05-07 16:45 53.70220 6.59483 37117 ft 441 kts 59°
2026-05-07 16:46 53.73372 6.68385 37116 ft 441 kts 59°
2026-05-07 16:46 53.76499 6.77221 37117 ft 441 kts 59°
2026-05-07 16:47 53.79636 6.86144 37115 ft 441 kts 59°
2026-05-07 16:47 53.82766 6.95098 37116 ft 442 kts 59°
2026-05-07 16:48 53.85905 7.04085 37117 ft 443 kts 59°
2026-05-07 16:48 53.89058 7.13132 37123 ft 444 kts 59°
2026-05-07 16:49 53.92180 7.22127 37124 ft 444 kts 59°
2026-05-07 16:49 53.95305 7.31169 37121 ft 445 kts 59°
2026-05-07 16:50 53.98405 7.40193 37120 ft 445 kts 59°
2026-05-07 16:50 54.01519 7.49293 37121 ft 445 kts 60°
2026-05-07 16:51 54.04632 7.58415 37120 ft 445 kts 60°
2026-05-07 16:51 54.07738 7.67535 37121 ft 445 kts 60°
2026-05-07 16:52 54.10827 7.76654 37120 ft 444 kts 60°
2026-05-07 16:52 54.13912 7.85796 37115 ft 444 kts 60°
2026-05-07 16:53 54.17418 7.94437 37114 ft 444 kts 46°
2026-05-07 16:53 54.21702 8.02034 37113 ft 443 kts 46°
2026-05-07 16:54 54.25945 8.09605 37110 ft 444 kts 46°
2026-05-07 16:54 54.30210 8.17262 37111 ft 444 kts 46°
2026-05-07 16:55 54.34472 8.24931 37117 ft 444 kts 46°
2026-05-07 16:55 54.38736 8.32632 37120 ft 445 kts 46°
2026-05-07 16:56 54.42998 8.40352 37126 ft 445 kts 46°
2026-05-07 16:56 54.49387 8.51974 37132 ft 446 kts 46°
2026-05-07 16:57 54.53644 8.59749 37134 ft 446 kts 46°
2026-05-07 16:57 54.57867 8.67487 37136 ft 446 kts 46°
2026-05-07 16:58 54.62123 8.75305 37136 ft 446 kts 46°
2026-05-07 16:58 54.66365 8.83124 37134 ft 446 kts 46°
2026-05-07 16:59 54.70614 8.90974 37134 ft 446 kts 46°
2026-05-07 16:59 54.74849 8.98833 37132 ft 447 kts 46°
2026-05-07 17:00 54.79081 9.06732 37133 ft 447 kts 46°
2026-05-07 17:00 54.83312 9.14645 37134 ft 447 kts 46°
2026-05-07 17:01 54.87503 9.22536 37132 ft 448 kts 47°
2026-05-07 17:01 54.91641 9.30639 37130 ft 448 kts 48°
2026-05-07 17:02 54.95726 9.38807 37134 ft 448 kts 49°
2026-05-07 17:02 54.99817 9.46982 37132 ft 448 kts 48°
2026-05-07 17:03 55.03927 9.55149 37131 ft 448 kts 48°
2026-05-07 17:03 55.08036 9.63315 37135 ft 447 kts 49°
2026-05-07 17:04 55.11302 9.72512 37054 ft 449 kts 67°
2026-05-07 17:04 55.12328 9.77651 36799 ft 448 kts 72°
2026-05-07 17:04 55.13251 9.82839 36551 ft 447 kts 72°
2026-05-07 17:05 55.14172 9.88026 36073 ft 448 kts 72°
2026-05-07 17:05 55.15101 9.93247 35330 ft 451 kts 72°
2026-05-07 17:05 55.16040 9.98510 34526 ft 455 kts 72°
2026-05-07 17:05 55.16984 10.03812 33650 ft 459 kts 72°
2026-05-07 17:06 55.17936 10.09181 32753 ft 464 kts 72°
2026-05-07 17:06 55.18876 10.14520 32004 ft 464 kts 72°
2026-05-07 17:06 55.19816 10.19884 31474 ft 459 kts 72°
2026-05-07 17:06 55.20745 10.25204 30880 ft 455 kts 72°
2026-05-07 17:07 55.21665 10.30491 30294 ft 451 kts 72°
2026-05-07 17:07 55.22575 10.35735 29707 ft 447 kts 72°
2026-05-07 17:07 55.23172 10.39176 29323 ft 445 kts 72°
2026-05-07 17:07 55.24068 10.44346 28739 ft 441 kts 73°
2026-05-07 17:08 55.24959 10.49481 28163 ft 438 kts 72°
2026-05-07 17:08 55.26120 10.56202 27406 ft 433 kts 73°
2026-05-07 17:08 55.26982 10.61238 26847 ft 429 kts 73°
2026-05-07 17:08 55.27557 10.64608 26468 ft 426 kts 73°
2026-05-07 17:09 55.28406 10.69575 25930 ft 423 kts 73°
2026-05-07 17:09 55.29248 10.74493 25399 ft 419 kts 73°
2026-05-07 17:09 55.30083 10.79364 24892 ft 415 kts 73°
2026-05-07 17:09 55.30913 10.84206 24388 ft 412 kts 73°
2026-05-07 17:10 55.31732 10.89003 23910 ft 408 kts 73°
2026-05-07 17:10 55.32542 10.93772 23428 ft 406 kts 73°
2026-05-07 17:10 55.33345 10.98502 22970 ft 403 kts 73°
2026-05-07 17:10 55.34125 11.03140 22511 ft 399 kts 73°
2026-05-07 17:11 55.34905 11.07819 22035 ft 397 kts 73°
2026-05-07 17:11 55.35693 11.12449 21560 ft 394 kts 73°
2026-05-07 17:11 55.36478 11.17049 21086 ft 391 kts 73°
2026-05-07 17:11 55.37006 11.21712 20608 ft 388 kts 84°
2026-05-07 17:12 55.37263 11.26410 20153 ft 384 kts 85°
2026-05-07 17:12 55.37497 11.31066 19651 ft 378 kts 85°
2026-05-07 17:12 55.37726 11.35637 18778 ft 373 kts 85°
2026-05-07 17:12 55.37952 11.40158 17912 ft 369 kts 85°
2026-05-07 17:13 55.38174 11.44620 17062 ft 364 kts 85°
2026-05-07 17:13 55.38391 11.49023 16223 ft 359 kts 85°
2026-05-07 17:13 55.38599 11.53312 15400 ft 353 kts 85°
2026-05-07 17:13 55.38800 11.57587 14586 ft 348 kts 85°
2026-05-07 17:14 55.38994 11.61798 13788 ft 343 kts 85°
2026-05-07 17:14 55.39179 11.65950 12973 ft 338 kts 85°
2026-05-07 17:14 55.39357 11.70040 12185 ft 333 kts 85°
2026-05-07 17:14 55.39527 11.74068 11575 ft 324 kts 85°
2026-05-07 17:15 55.39683 11.77876 11421 ft 301 kts 85°
2026-05-07 17:15 55.39831 11.81485 10967 ft 292 kts 85°
2026-05-07 17:15 55.39977 11.85028 10406 ft 288 kts 85°
2026-05-07 17:15 55.40124 11.88513 9849 ft 284 kts 85°
2026-05-07 17:16 55.40407 11.91923 9280 ft 279 kts 77°
2026-05-07 17:16 55.40872 11.95219 8724 ft 276 kts 75°
2026-05-07 17:16 55.41357 11.98458 8169 ft 272 kts 75°
2026-05-07 17:16 55.41838 12.01666 7591 ft 270 kts 75°
2026-05-07 17:17 55.42305 12.04809 7020 ft 267 kts 75°
2026-05-07 17:17 55.42765 12.07961 6435 ft 265 kts 75°
2026-05-07 17:17 55.43216 12.11105 5867 ft 263 kts 75°
2026-05-07 17:17 55.43659 12.14219 5289 ft 262 kts 75°
2026-05-07 17:18 55.44089 12.17297 4926 ft 252 kts 75°
2026-05-07 17:18 55.44485 12.20193 4762 ft 235 kts 75°
2026-05-07 17:18 55.44855 12.22960 4382 ft 229 kts 75°
2026-05-07 17:18 55.45206 12.25627 4217 ft 217 kts 75°
2026-05-07 17:19 55.45537 12.28179 4097 ft 209 kts 75°
2026-05-07 17:19 55.45847 12.30629 3974 ft 201 kts 75°
2026-05-07 17:19 55.46143 12.32988 3849 ft 194 kts 75°
2026-05-07 17:19 55.46434 12.35272 3678 ft 189 kts 75°
2026-05-07 17:20 55.46716 12.37526 3485 ft 186 kts 75°
2026-05-07 17:20 55.46984 12.39709 3379 ft 179 kts 75°
2026-05-07 17:20 55.47351 12.41752 3142 ft 174 kts 56°
2026-05-07 17:20 55.48127 12.43305 2889 ft 166 kts 38°
2026-05-07 17:21 55.48992 12.44627 2668 ft 164 kts 38°
2026-05-07 17:21 55.49836 12.45919 2455 ft 162 kts 38°
2026-05-07 17:21 55.50693 12.47231 2222 ft 168 kts 39°
2026-05-07 17:21 55.51608 12.48633 2005 ft 174 kts 41°
2026-05-07 17:22 55.52518 12.50031 1799 ft 173 kts 42°
2026-05-07 17:22 55.53404 12.51392 1557 ft 169 kts 44°
2026-05-07 17:22 55.54277 12.52734 1352 ft 163 kts 44°
2026-05-07 17:22 55.55076 12.53965 1120 ft 143 kts 39°
2026-05-07 17:23 55.55804 12.55088 934 ft 135 kts 39°
2026-05-07 17:23 55.56509 12.56174 750 ft 133 kts 39°
2026-05-07 17:23 55.57205 12.57248 567 ft 133 kts 39°
2026-05-07 17:23 55.57898 12.58320 402 ft 133 kts 39°
2026-05-07 17:24 55.58601 12.59375 232 ft 132 kts 38°
2026-05-07 17:24 55.59294 12.60453 63 ft 133 kts 40°
2026-05-07 17:24 55.59919 12.61424 23 ft 97 kts 41°
2026-05-07 17:24 55.60299 12.62013 24 ft 54 kts 41°
2026-05-07 17:25 55.60569 12.62433 27 ft 49 kts 41°
2026-05-07 17:25 55.60816 12.62814 24 ft 46 kts 41°
2026-05-07 17:25 55.61048 12.63172 27 ft 40 kts 41°
2026-05-07 17:25 55.61173 12.63331 28 ft 17 kts
2026-05-07 17:26 55.61287 12.63319 27 ft 13 kts 356°
2026-05-07 17:26 55.61366 12.63311 24 ft 12 kts
2026-05-07 17:26 55.61442 12.63404 26 ft 15 kts 41°
2026-05-07 17:26 55.61527 12.63536 26 ft 18 kts 41°
2026-05-07 17:27 55.61625 12.63687 27 ft 20 kts 41°
2026-05-07 17:27 55.61718 12.63831 24 ft 13 kts 41°
2026-05-07 17:27 55.61792 12.63947 24 ft 16 kts 41°
2026-05-07 17:27 55.61886 12.64082 26 ft 18 kts 24°
2026-05-07 17:28 55.61991 12.64170 24 ft 18 kts 24°
2026-05-07 17:28 55.62108 12.64267 24 ft 17 kts 25°
2026-05-07 17:28 55.62201 12.64346 22 ft 12 kts 26°
2026-05-07 17:28 55.62290 12.64400 23 ft 15 kts 14°
2026-05-07 17:29 55.62384 12.64444 25 ft 14 kts 15°
2026-05-07 17:29 55.62476 12.64507 27 ft 14 kts 57°
2026-05-07 17:29 55.62433 12.64652 24 ft 14 kts 124°
2026-05-07 17:29 55.62377 12.64808 24 ft 16 kts 124°
2026-05-07 17:30 55.62314 12.64975 27 ft 17 kts 122°
2026-05-07 17:30 55.62277 12.65136 24 ft 12 kts 59°
2026-05-07 17:30 55.62344 12.65203 24 ft 12 kts 358°
2026-05-07 17:30 55.62433 12.65200 24 ft 14 kts 357°
2026-05-07 17:31 55.62530 12.65184 24 ft 15 kts 359°
2026-05-07 17:31 55.62632 12.65186 24 ft 10 kts
2026-05-07 17:31 55.62688 12.65133 25 ft 10 kts 300°
2026-05-07 17:31 55.62699 12.65080 24 ft 0 kts 288°
2026-05-07 17:32 55.62699 12.65079 24 ft 0 kts 288°